x

Yucatan Basin - 120 Nm Ese Of Cozumel, Mx (42056) Weather Station

10:10 - Sun 24th Sep 2017 All times are CDT. -5 hours from GMT.

  • Wind
    9mph, 11mph gusts
  • Sea Temp 87°f
  • Air Temp 86°f
  • Sea Pressure 1011.2mb
  •  Yucatan Basin - 120 Nm Ese Of Cozumel, Mx
  •  Yucatan Basin - 120 Nm Ese Of Cozumel, Mx

More Historic Weather Station data

Upgrade to MSW Pro to gain access to the past 30 days of data for over 8000 Wavebouys and Weather Stations around the globe.

Join

Comparision Forecast

View Surf forecast
   
dim. 09/24 10:10  -   -   -  9 11 mph 1011.2mb 87f 86f
10:00  -   -   -  9 11 mph 1011.2mb 87f 86f
9:50 1ft 8s 4s 9 11 mph 1011.2mb 87f 86f
9:40 1ft  -  4s 9 13 mph 1011mb 87f 86f
9:30  -   -   -  9 11 mph 1010.9mb 87f 86f
9:20  -   -   -  9 11 mph 1010.9mb 87f 86f
9:10  -   -   -  9 11 mph 1010.7mb 87f 86f
9:00  -   -   -  9 11 mph 1010.7mb 87f 86f
8:50 1ft 8s 4s 9 11 mph 1010.6mb 87f 86f
8:40  -   -   -  9 11 mph 1010.6mb 87f 86f
8:30  -   -   -  9 11 mph 1010.5mb 87f 86f
8:20  -   -   -  9 11 mph 1010.4mb 87f 86f
8:10  -   -   -  9 11 mph 1010.3mb 87f 86f
8:00  -   -   -  9 11 mph 1010mb - 86f
7:50 1ft 4s 4s 9 11 mph 1009.9mb 87f 86f
7:40  -   -   -  9 11 mph 1009.7mb 87f 86f
7:30  -   -   -  9 11 mph 1009.7mb 87f 86f
7:20  -   -   -  9 11 mph 1009.5mb 87f 86f
7:10  -   -   -  9 11 mph 1009.5mb 87f 86f
7:00  -   -   -  9 11 mph 1009.3mb 87f 86f
6:50 1ft 5s 4s 9 11 mph 1009.3mb 87f 86f
6:40  -   -   -  9 9 mph 1009.1mb 87f 86f
6:30  -   -   -  7 9 mph 1009mb 87f 86f
6:20  -   -   -  7 9 mph 1009.1mb 87f 86f
6:10  -   -   -  7 9 mph 1009.1mb 87f 86f
6:00  -   -   -  7 9 mph 1008.8mb 87f 86f
5:50 1ft 5s 4s 7 9 mph 1008.6mb 87f 86f
5:40 1ft  -  4s 7 9 mph 1008.6mb 87f 86f
5:30  -   -   -  7 11 mph 1008.8mb 87f 86f
5:20  -   -   -  7 9 mph 1008.5mb 87f 86f
5:10  -   -   -  7 9 mph 1008.5mb 87f 86f
5:00  -   -   -  7 11 mph 1008.5mb 87f 86f
4:50 1ft 5s 4s 7 9 mph 1008.6mb - 86f
4:40 1ft  -  4s 7 9 mph 1008.6mb 87f 86f
4:30  -   -   -  7 7 mph 1008.5mb 87f 86f
4:20  -   -   -  4 7 mph 1008.4mb 87f 86f
4:10  -   -   -  7 9 mph 1008.5mb 87f 86f
4:00  -   -   -  4 9 mph 1008.6mb 87f 86f
3:50 1ft 5s 4s 4 7 mph 1008.4mb 87f 86f
3:40  -   -   -  4 7 mph 1008.5mb 87f 86f
3:30  -   -   -  4 7 mph 1008.6mb 87f 86f
3:20  -   -   -  4 7 mph 1008.4mb 87f 86f
3:10  -   -   -  4 7 mph 1008.7mb 87f 86f
3:00  -   -   -  7 7 mph 1008.7mb 87f 86f
2:50 1ft 5s 4s 4 7 mph 1008.7mb 87f 86f
2:40  -   -   -  4 7 mph 1008.7mb 87f 86f
2:30  -   -   -  4 7 mph 1008.9mb 87f 86f
2:20  -   -   -  4 7 mph 1008.9mb 87f 86f
2:10  -   -   -  4 7 mph 1009.1mb 87f 86f
2:00  -   -   -  4 7 mph 1009.2mb - 86f
1:50 1ft 5s 4s 4 7 mph 1009.5mb - 86f
1:40  -   -   -  4 7 mph 1009.6mb 87f 86f
1:30  -   -   -  4 7 mph 1009.6mb 87f 86f
1:20  -   -   -  4 7 mph 1009.7mb 87f 86f
1:10  -   -   -  7 9 mph 1010.2mb 88f 86f
1:00  -   -   -  7 7 mph 1009.8mb 88f 86f
12:50 1ft 5s 4s 4 9 mph 1009.8mb 87f 86f
12:40 1ft  -  4s 4 7 mph 1009.9mb 87f 86f
12:30  -   -   -  4 7 mph 1010mb 87f 86f
12:20  -   -   -  4 7 mph 1010.1mb 87f 86f
12:10  -   -   -  4 7 mph 1010.2mb 87f 86f
12:00  -   -   -  4 7 mph 1010.3mb 87f 86f
11:50 1.3ft 4s 4s 4 7 mph 1010.5mb 87f 86f
11:40 1.3ft  -  4s 4 7 mph 1010.6mb 87f 86f
11:30  -   -   -  4 7 mph 1010.7mb 87f 86f
11:20  -   -   -  4 4 mph 1010.6mb 87f 86f
11:10  -   -   -  4 7 mph 1010.6mb 87f 86f
11:00  -   -   -  4 7 mph 1010.6mb 87f 86f
10:50 1.3ft 5s 4s 4 7 mph 1010.7mb 87f 86f
10:40  -   -   -  4 7 mph 1010.6mb 87f 86f
10:30  -   -   -  4 7 mph 1010.5mb 87f 86f
10:20  -   -   -  4 9 mph 1010.6mb 87f 86f
10:10  -   -   -  4 7 mph 1010.6mb 87f 86f
10:00  -   -   -  4 7 mph 1010.6mb 87f 86f
9:50 1.3ft 6s 4s 4 7 mph 1010.5mb 87f 86f
9:40 1.3ft  -  4s 4 7 mph 1010.3mb 87f 86f
9:30  -   -   -  4 7 mph 1010.3mb 87f 86f
9:20  -   -   -  4 7 mph 1010.2mb 87f 86f
9:10  -   -   -  4 7 mph 1010.1mb 87f 86f
9:00  -   -   -  4 7 mph 1010.1mb 87f 86f
8:50 1.3ft 6s 4s 4 7 mph 1010mb 87f 86f
8:40  -   -   -  4 7 mph 1010mb 86f 86f
8:30  -   -   -  4 7 mph 1010.1mb 86f 86f
8:20  -   -   -  4 7 mph 1010mb 86f 86f
8:10  -   -   -  4 7 mph 1010mb 86f 86f
8:00  -   -   -  4 4 mph 1010mb - 86f
7:50 1.3ft 5s 4s 4 7 mph 1009.9mb - 86f
7:40 1.3ft  -  4s 4 7 mph 1009.8mb 86f 86f
7:30  -   -   -  4 7 mph 1009.8mb 86f 86f
7:20  -   -   -  4 7 mph 1009.7mb 86f 86f
7:10  -   -   -  4 7 mph 1009.6mb 86f 85f
7:00  -   -   -  4 7 mph 1009.5mb 86f 85f
6:50 1.3ft 5s 4s 4 7 mph 1009.5mb 86f 85f
6:40  -   -   -  4 4 mph 1009.4mb 86f 85f
6:30  -   -   -  4 4 mph 1009.4mb 86f 85f
6:20  -   -   -  4 7 mph 1009.4mb 86f 85f
6:10  -   -   -  4 4 mph 1009.3mb 86f 85f
6:00  -   -   -  4 4 mph 1009mb 86f 85f
5:50 1.3ft 5s 4s 4 7 mph 1008.9mb 86f 85f
5:40 1.3ft  -  4s 4 7 mph 1009mb 86f 85f
5:30  -   -   -  4 7 mph 1008.9mb 86f 85f
5:20  -   -   -  2 4 mph 1008.7mb 86f 85f
5:10  -   -   -  2 4 mph 1008.8mb 86f 85f
5:00  -   -   -  2 4 mph 1008.7mb 86f 85f
4:50 1.3ft 5s 4s 2 4 mph 1008.7mb 86f 85f
4:40  -   -   -  2 4 mph 1008.6mb 86f 85f
4:30  -   -   -  2 4 mph 1008.4mb 86f 85f
4:20  -   -   -  4 7 mph 1008.4mb 86f 85f
4:10  -   -   -  4 7 mph 1008.4mb - 85f
4:00  -   -   -  7 7 mph 1008.3mb 86f 85f
3:50 1.6ft 6s 4s 7 9 mph 1008.1mb 86f 85f
3:40 1.6ft  -  4s 7 9 mph 1008.3mb 86f 85f
3:30  -   -   -  4 7 mph 1008.2mb 86f 85f
3:20  -   -   -  4 7 mph 1008.4mb 86f 85f
3:10  -   -   -  7 9 mph 1008.4mb 86f 85f
3:00  -   -   -  7 9 mph 1008.4mb 86f 85f
2:50 1.6ft 6s 4s 7 9 mph 1008.4mb 86f 85f
2:40  -   -   -  9 11 mph 1008.5mb 86f 85f
2:30  -   -   -  9 11 mph 1008.6mb 86f 85f
2:20  -   -   -  9 11 mph 1008.7mb - 85f
2:10  -   -   -  9 11 mph 1008.7mb 86f 85f
2:00  -   -   -  9 11 mph 1008.8mb 86f 85f
1:50 1.6ft 5s 4s 9 11 mph 1009mb 86f 85f
1:40 1.6ft  -  4s 9 11 mph 1009mb 86f 85f
1:30  -   -   -  9 11 mph 1009.2mb 86f 85f
1:20  -   -   -  9 11 mph 1009.3mb 86f 86f
1:10  -   -   -  7 9 mph 1009.5mb 86f 86f
1:00  -   -   -  7 9 mph 1009.6mb 86f 86f
12:50 1.6ft 5s 4s 7 9 mph 1009.7mb 86f 86f
12:40 1.6ft  -  4s 9 9 mph 1009.5mb 86f 86f
12:30  -   -   -  9 11 mph 1009.6mb 86f 86f
12:20  -   -   -  9 13 mph 1009.5mb 86f 86f
12:10  -   -   -  9 13 mph 1009.5mb 86f 86f
12:00  -   -   -  11 13 mph 1009.8mb 86f 86f
sam. 09/23 11:50 1.6ft 5s 4s 11 13 mph 1009.8mb 86f 86f
11:40 1.6ft  -  4s 11 13 mph 1009.9mb 86f 86f
11:30  -   -   -  11 13 mph 1009.8mb 87f 86f
11:20  -   -   -  9 13 mph 1010mb 87f 86f
11:10  -   -   -  9 11 mph 1010.1mb 87f 86f
11:00  -   -   -  9 13 mph 1010.2mb 87f 86f
10:50 1.6ft 6s 4s 11 13 mph 1010.1mb 87f 86f
10:40  -   -   -  9 13 mph 1010.1mb 87f 86f
10:30  -   -   -  9 11 mph 1010.2mb 87f 86f
10:20  -   -   -  9 11 mph 1010.1mb 87f 86f
10:10  -   -   -  9 11 mph 1010.1mb 87f 86f
10:00  -   -   -  11 13 mph 1010mb 87f 86f
9:50 1.6ft 5s 4s 9 13 mph 1010mb 87f 86f
9:40 1.6ft  -  4s 11 13 mph 1009.9mb 87f 86f
9:30  -   -   -  11 13 mph 1009.8mb 87f 86f
9:20  -   -   -  11 13 mph 1009.7mb 87f 86f
9:10  -   -   -  11 13 mph 1009.6mb 87f 86f
9:00  -   -   -  11 16 mph 1009.4mb 87f 86f
8:50 2ft  -  4s 11 13 mph 1009.4mb 87f 86f
8:40 2ft 6s 4s  -  mph - - -
8:30  -   -   -  11 13 mph 1009.4mb 87f 86f
8:20  -   -   -  11 13 mph 1009.3mb 87f 86f
8:10  -   -   -  9 13 mph 1009.2mb 87f 86f
8:00  -   -   -  11 13 mph 1009.2mb 87f 86f
7:50 2ft 5s 4s 11 13 mph 1009mb 87f 86f
7:40  -   -   -  9 11 mph 1008.9mb 87f 86f
7:30  -   -   -  11 11 mph 1008.8mb 87f 85f
7:20  -   -   -  7 11 mph 1008.8mb - 85f
7:10  -   -   -  9 13 mph 1008.7mb 87f 86f
7:00  -   -   -  9 11 mph 1008.6mb 87f 86f
6:50 2ft 6s 4s 9 11 mph 1008.5mb 87f 86f
6:40  -   -   -  9 11 mph 1008.4mb 87f 86f
6:30  -   -   -  9 11 mph 1008.2mb 87f 86f
6:20  -   -   -  9 11 mph 1008.1mb 87f 86f
6:10  -   -   -  9 11 mph 1008.1mb 87f 86f
6:00  -   -   -  9 11 mph 1008.1mb 87f 86f
5:50 2ft 5s 4s 9 11 mph 1007.9mb 87f 86f
5:40 2ft  -  4s 9 11 mph 1007.9mb 87f 86f
5:30  -   -   -  9 13 mph 1007.7mb - 86f
5:20  -   -   -  9 13 mph 1007.7mb 87f 86f
5:10  -   -   -  9 11 mph 1007.7mb 87f 86f
5:00  -   -   -  9 11 mph 1007.6mb 87f 86f
4:50 2ft 5s 4s 9 9 mph 1007.6mb 87f 86f
4:40  -   -   -  7 9 mph 1007.6mb 87f 86f
4:30  -   -   -  9 9 mph 1007.6mb 87f 86f
4:20  -   -   -  9 11 mph 1007.5mb 87f 86f
4:10  -   -   -  9 11 mph 1007.5mb 87f 86f
4:00  -   -   -  9 11 mph 1007.5mb 87f 86f
3:50 2ft 6s 4s 9 13 mph 1007.4mb 87f 86f
3:40  -   -   -  9 11 mph 1007.5mb 87f 86f
3:30  -   -   -  9 11 mph 1007.5mb 87f 86f
3:20  -   -   -  9 11 mph 1007.6mb 87f 86f
3:10  -   -   -  9 11 mph 1007.7mb 87f 86f
3:00  -   -   -  9 11 mph 1007.8mb 87f 86f
2:50 2ft 5s 4s 7 9 mph 1007.9mb 87f 86f
2:40  -   -   -  7 9 mph 1008.1mb 87f 86f
2:30  -   -   -  7 9 mph 1008.2mb 87f 86f
2:20  -   -   -  7 9 mph 1008.4mb 87f 86f
2:10  -   -   -  7 9 mph 1008.5mb 87f 86f
2:00  -   -   -  7 11 mph 1008.7mb 87f 86f
1:50 2ft 6s 5s 7 9 mph 1008.7mb 87f 86f
1:40  -   -   -  7 9 mph 1008.8mb 87f 86f
1:30  -   -   -  7 9 mph 1008.9mb 87f 86f
1:20  -   -   -  7 9 mph 1008.9mb 87f 86f
1:10  -   -   -  9 11 mph 1008.9mb - 86f
1:00  -   -   -  7 11 mph 1009mb 87f 86f
12:50 2ft 6s 5s 7 11 mph 1009.2mb 87f 86f
12:40  -   -   -  9 11 mph 1009.3mb 87f 86f
12:30  -   -   -  9 11 mph 1009.3mb 87f 86f
12:20  -   -   -  9 11 mph 1009.4mb 87f 86f
12:10  -   -   -  9 11 mph 1009.5mb 87f 86f
12:00  -   -   -  9 11 mph 1009.5mb 87f 86f
11:50 2.5ft 6s 5s 9 11 mph 1009.7mb 87f 86f
11:40  -   -   -  9 11 mph 1009.8mb 87f 86f
11:30  -   -   -  9 11 mph 1009.8mb 87f 86f
11:20  -   -   -  9 13 mph 1009.8mb 87f 86f
11:10  -   -   -  11 13 mph 1009.9mb 87f 86f
11:00  -   -   -  11 13 mph 1010mb 87f 86f
10:50 2ft 5s 5s 11 13 mph 1010mb 87f 86f
10:40  -   -   -  9 13 mph 1010mb 87f 86f
10:30  -   -   -  9 13 mph 1010mb 87f 86f
10:20  -   -   -  11 13 mph 1010mb 87f 86f
10:10  -   -   -  9 13 mph 1010mb 87f 86f
10:00  -   -   -  9 13 mph 1010mb 87f 86f
9:50 2.5ft 6s 5s 9 11 mph 1010mb 87f 86f
9:40  -   -   -  9 11 mph 1010mb 87f 86f
9:30  -   -   -  9 11 mph 1010mb 87f 86f
9:20  -   -   -  9 11 mph 1010mb 87f 86f
9:10  -   -   -  7 9 mph 1010.1mb 87f 86f
9:00  -   -   -  7 9 mph 1010mb 87f 86f
8:50 2.5ft 6s 5s 9 11 mph 1009.9mb 87f 86f
8:40 2.5ft  -  5s 9 13 mph 1009.8mb 87f 86f
8:30  -   -   -  11 13 mph 1009.7mb 87f 86f
8:20  -   -   -  9 11 mph 1009.6mb 87f 85f
8:10  -   -   -  9 11 mph 1009.6mb 87f 85f
8:00  -   -   -  9 11 mph 1010mb 87f 86f
7:50 2.5ft 5s 5s 9 13 mph 1009.5mb 87f 85f
7:40 2.5ft  -  5s 11 13 mph 1009.4mb 87f 85f
7:30  -   -   -  9 13 mph 1009.5mb 87f 85f
7:20  -   -   -  9 13 mph 1009.4mb 87f 85f
7:10  -   -   -  9 13 mph 1009.3mb 87f 85f
7:00  -   -   -  11 13 mph 1009.1mb 87f 85f
6:50 2.5ft 6s 5s 9 13 mph 1009mb 87f 85f
6:40  -   -   -  9 11 mph 1009mb 87f 85f
6:30  -   -   -  11 13 mph 1009mb 87f 85f
6:20  -   -   -  11 13 mph 1008.9mb 87f 85f
6:10  -   -   -  11 13 mph 1008.8mb 87f 85f
6:00  -   -   -  9 11 mph 1008.9mb 87f 85f
5:50 2.5ft 6s 5s 9 11 mph 1008.9mb 87f 85f
5:40 2.5ft  -  5s 9 11 mph 1008.9mb 87f 85f
5:30  -   -   -  9 11 mph 1008.7mb 87f 85f
5:20  -   -   -  9 11 mph 1008.7mb 87f 85f
5:10  -   -   -  9 11 mph 1008.7mb 87f 85f
5:00  -   -   -  9 11 mph 1008.6mb 87f 85f
4:50 2.5ft 6s 5s 9 11 mph 1008.5mb 87f 85f
4:40  -   -   -  9 13 mph 1008.5mb 87f 85f
4:30  -   -   -  9 11 mph 1008.5mb 87f 85f
4:20  -   -   -  9 11 mph 1008.4mb 87f 85f
4:10  -   -   -  9 11 mph 1008.4mb 87f 85f
4:00  -   -   -  9 11 mph 1008.4mb 87f 85f
3:50 2.5ft 9s 5s 7 9 mph 1008.4mb 87f 85f
3:40  -   -   -  7 11 mph 1008.4mb 87f 85f
3:30  -   -   -  9 11 mph 1008.4mb 87f 85f
3:20  -   -   -  7 9 mph 1008.4mb 87f 85f
3:10  -   -   -  7 9 mph 1008.5mb 87f 85f
3:00  -   -   -  7 9 mph 1008.5mb 87f 85f
2:50 2.5ft 5s 5s 7 9 mph 1008.7mb 87f 85f
2:40  -   -   -  7 11 mph 1008.7mb 87f 85f
2:30  -   -   -  7 9 mph 1008.8mb 87f 85f
2:20  -   -   -  9 11 mph 1008.8mb 87f 85f
2:10  -   -   -  9 13 mph 1009mb 87f 85f
2:00  -   -   -  11 13 mph 1009mb 87f 85f
1:50 2.5ft 5s 4s 11 13 mph 1009.2mb 87f 85f
1:40  -   -   -  9 13 mph 1009.3mb 87f 85f
1:30  -   -   -  9 11 mph 1009.3mb 87f 85f
1:20  -   -   -  11 13 mph 1009.3mb 87f 85f
1:10  -   -   -  11 13 mph 1009.3mb 87f 85f
1:00  -   -   -  11 16 mph 1009.3mb 87f 85f
12:50 2.5ft 5s 4s 11 16 mph 1009.3mb 87f 85f
12:40 2.5ft  -  4s 11 13 mph 1009.4mb 87f 85f
12:30  -   -   -  11 13 mph 1009.5mb 87f 85f
12:20  -   -   -  11 13 mph 1009.5mb 87f 85f
12:10  -   -   -  11 16 mph 1009.5mb 87f 85f
12:00  -   -   -  11 16 mph 1009.6mb 87f 85f
ven. 09/22 11:50 2.5ft 5s 4s 11 13 mph 1009.7mb 87f 85f
11:40 2.5ft  -  4s 11 13 mph 1009.7mb 87f 85f
11:30  -   -   -  11 13 mph 1009.7mb 87f 85f
11:20  -   -   -  11 13 mph 1009.8mb 87f 85f
11:10  -   -   -  11 13 mph 1009.9mb 87f 85f
11:00  -   -   -  9 13 mph 1009.9mb 87f 85f
10:50 2.5ft 5s 5s 11 13 mph 1010mb 87f 85f
10:40  -   -   -  9 13 mph 1010mb 87f 85f
10:30  -   -   -  9 11 mph 1009.9mb 87f 85f
10:20  -   -   -  9 11 mph 1010mb 87f 85f
10:10  -   -   -  11 11 mph 1010mb 87f 85f
10:00  -   -   -  11 13 mph 1010.1mb 87f 85f
9:50 2.5ft 5s 4s 11 13 mph 1010.1mb 87f 85f
9:40  -   -   -  11 13 mph 1010.1mb 87f 85f
9:30  -   -   -  11 16 mph 1010.1mb 87f 85f
9:20  -   -   -  11 13 mph 1010.2mb 87f 85f
9:10  -   -   -  11 16 mph 1010.1mb 87f 86f
9:00  -   -   -  13 16 mph 1010mb 87f 85f
8:50 2.5ft 5s 4s 13 16 mph 1009.8mb 87f 85f
8:40 2.5ft  -  4s 13 16 mph 1009.7mb 87f 86f
8:30  -   -   -  13 16 mph 1009.5mb 87f 85f
8:20  -   -   -  13 16 mph 1009.4mb 87f 85f
8:10  -   -   -  13 16 mph 1009.3mb - 86f
8:00  -   -   -  13 16 mph 1009.3mb 87f 86f
7:50 2.5ft 5s 4s 13 16 mph 1009.3mb 87f 86f
7:40 2.5ft  -  4s 13 18 mph 1009.2mb 87f 86f
7:30  -   -   -  13 18 mph 1009.1mb 87f 86f
7:20  -   -   -  16 18 mph 1009.6mb 87f 86f
7:10  -   -   -  13 18 mph 1009.1mb 87f 86f
7:00  -   -   -  13 16 mph 1008.9mb 87f 86f
6:50 2.5ft  -  4s 13 18 mph 1009.5mb 87f 86f
6:40 2.5ft  -  4s 13 16 mph 1008.7mb 87f 86f
6:20  -   -   -  13 16 mph 1008.6mb 87f 86f
6:10  -   -   -  11 16 mph 1008.5mb 87f 86f
6:00  -   -   -  11 13 mph 1008.4mb 87f 86f
5:50 2.5ft 10s 5s 11 16 mph 1008.4mb 87f 86f
5:40  -   -   -  11 13 mph 1008.2mb 87f 86f
5:30  -   -   -  11 13 mph 1008.1mb 87f 86f
5:20  -   -   -  11 13 mph 1007.9mb 87f 86f
5:10  -   -   -  11 13 mph 1007.9mb 87f 86f
5:00  -   -   -  11 13 mph 1007.9mb 87f 86f
4:50 2.5ft 5s 5s 9 13 mph 1008.1mb 87f 86f
4:40 2.5ft  -  5s 9 13 mph 1008.3mb 87f 86f
4:30  -   -   -  9 11 mph 1008.4mb 87f 86f
4:20  -   -   -  9 11 mph 1008.4mb 87f 86f
4:10  -   -   -  9 11 mph 1008.5mb 87f 86f
4:00  -   -   -  9 11 mph 1008.6mb 87f 86f
3:50 2.5ft 11s 5s 9 13 mph 1008.8mb 87f 86f
3:40  -   -   -  9 11 mph 1008.8mb 87f 86f
3:30  -   -   -  11 13 mph 1008.9mb 87f 86f
3:20  -   -   -  9 13 mph 1008.9mb 87f 86f
3:10  -   -   -  9 11 mph 1009.1mb 87f 86f
3:00  -   -   -  9 13 mph 1009.1mb 87f 86f
2:50 2.5ft 11s 5s 9 11 mph 1009.2mb 87f 86f
2:40  -   -   -  9 11 mph 1009.2mb 87f 86f
2:30  -   -   -  9 11 mph 1009.3mb 87f 86f
2:20  -   -   -  9 11 mph 1009.5mb 87f 86f
2:10  -   -   -  9 13 mph 1009.6mb 87f 86f
2:00  -   -   -  9 11 mph 1009.7mb 87f 86f
1:50 2.5ft 11s 5s 9 11 mph 1009.8mb 87f 86f
1:40  -   -   -  9 11 mph 1010mb 87f 86f
1:30  -   -   -  7 9 mph 1010.2mb 87f 86f
1:20  -   -   -  7 9 mph 1010.3mb 87f 86f
1:10  -   -   -  7 9 mph 1010.3mb 87f 86f
1:00  -   -   -  7 9 mph 1010.4mb 87f 86f
12:50 2.5ft 11s 5s 7 9 mph 1010.5mb 87f 86f
12:40  -   -   -  7 9 mph 1010.6mb 87f 86f
12:30  -   -   -  7 11 mph 1010.7mb 87f 86f
12:20  -   -   -  7 9 mph 1010.9mb - 86f
12:10  -   -   -  9 11 mph 1010.9mb 87f 86f
12:00  -   -   -  7 11 mph 1010.9mb 87f 86f
11:50 2.5ft 11s 5s 7 9 mph 1011.1mb 87f 86f
11:40 2.5ft  -  5s 7 9 mph 1011.1mb 87f 86f
11:30  -   -   -  7 11 mph 1011.2mb 87f 86f
11:20  -   -   -  7 9 mph 1011.3mb 87f 86f
11:10  -   -   -  9 9 mph 1011.3mb 87f 86f
11:00  -   -   -  9 9 mph 1011.3mb - 86f
10:50 2.5ft  -  5s 9 11 mph 1011.4mb 87f 86f
10:40 2.5ft 11s 5s  -  mph - - -
10:30  -   -   -  7 9 mph 1011.3mb 87f 86f
10:20  -   -   -  7 9 mph 1011.2mb 87f 86f
10:10  -   -   -  7 9 mph 1011.3mb 87f 86f
10:00  -   -   -  7 9 mph 1011.1mb 87f 86f
9:50 2.5ft 11s 5s 7 9 mph 1011.2mb 87f 86f
9:40  -   -   -  7 9 mph 1011.2mb 87f 86f
9:30  -   -   -  7 9 mph 1011.2mb 87f 86f
9:20  -   -   -  9 11 mph 1011.1mb 87f 86f
9:10  -   -   -  9 11 mph 1011mb 87f 86f
9:00  -   -   -  7 9 mph 1011.1mb 87f 86f
8:50 2ft 12s 5s 9 11 mph 1011.2mb 87f 86f
8:40  -   -   -  9 11 mph 1011.1mb 87f 86f
8:30  -   -   -  9 11 mph 1011mb 87f 86f
8:20  -   -   -  9 11 mph 1010.9mb 87f 86f
8:10  -   -   -  9 13 mph 1010.8mb 87f 86f
8:00  -   -   -  11 13 mph 1010.7mb 87f 86f
7:50 2ft 12s 5s 11 13 mph 1010.6mb 87f 86f
7:40 2ft  -  5s 11 13 mph 1010.4mb 87f 86f
7:30  -   -   -  9 13 mph 1010.5mb 87f 86f
7:20  -   -   -  11 13 mph 1010.4mb 87f 86f
7:10  -   -   -  11 13 mph 1010.4mb 87f 86f
7:00  -   -   -  11 13 mph 1010.4mb 87f 85f
6:50 2.5ft 13s 5s 9 13 mph 1010.4mb 87f 85f
6:40 2.5ft  -  5s 11 13 mph 1010.2mb 87f 85f
6:30  -   -   -  9 13 mph 1010.1mb 87f 85f
6:20  -   -   -  9 11 mph 1010.1mb 87f 85f
6:10  -   -   -  9 13 mph 1010.1mb 87f 85f
6:00  -   -   -  9 13 mph 1010mb 87f 85f
5:50 2.5ft 13s 5s 11 13 mph 1010mb 87f 85f
5:40 2.5ft  -  5s 11 13 mph 1010mb 87f 85f
5:30  -   -   -  11 13 mph 1010mb 87f 85f
5:20  -   -   -  9 11 mph 1010mb 87f 85f
5:10  -   -   -  9 11 mph 1010mb 87f 85f
5:00  -   -   -  9 13 mph 1010mb 87f 85f
4:50 2ft 13s 5s 9 11 mph 1010mb 87f 85f
4:40  -   -   -  11 13 mph 1010mb 87f 85f
4:30  -   -   -  9 13 mph 1010mb 87f 85f
4:20  -   -   -  11 13 mph 1010.1mb 87f 85f
4:10  -   -   -  11 13 mph 1010mb 87f 85f
4:00  -   -   -  11 13 mph 1009.9mb 87f 85f
3:50 2ft 13s 5s 9 11 mph 1009.9mb 87f 85f
3:40  -   -   -  9 11 mph 1010mb 87f 85f
3:30  -   -   -  9 11 mph 1010.1mb 87f 85f
3:20  -   -   -  9 11 mph 1010.1mb 87f 85f
3:10  -   -   -  9 11 mph 1010.2mb 87f 85f
3:00  -   -   -  9 11 mph 1010.3mb 87f 85f
2:50 2.5ft 13s 5s 9 11 mph 1010.4mb 87f 85f
2:40 2.5ft  -  5s 9 11 mph 1010.4mb - 85f
2:30  -   -   -  11 13 mph 1010.4mb 87f 85f
2:20  -   -   -  11 13 mph 1010.4mb 87f 85f
2:10  -   -   -  11 11 mph 1010.4mb 87f 86f
2:00  -   -   -  9 11 mph 1010.6mb 87f 86f
1:50 2ft 14s 5s 9 11 mph 1010.6mb 87f 86f
1:40 2ft  -  5s 9 11 mph 1010.6mb 87f 86f
1:30  -   -   -  9 11 mph 1010.8mb 87f 86f
1:20  -   -   -  9 11 mph 1010.8mb 87f 86f
1:10  -   -   -  11 13 mph 1010.9mb 87f 86f
1:00  -   -   -  11 13 mph 1010.9mb 87f 86f
12:50 2.5ft 14s 5s 11 13 mph 1010.8mb 87f 86f
12:40  -   -   -  11 13 mph 1010.9mb 87f 86f
12:30  -   -   -  9 13 mph 1011mb 87f 86f
12:20  -   -   -  11 13 mph 1011.2mb 87f 86f
12:10  -   -   -  11 13 mph 1011.2mb 87f 86f
12:00  -   -   -  11 13 mph 1011.3mb 87f 86f
jeu. 09/21 11:50 2.5ft 14s 5s 11 13 mph 1011.3mb 87f 86f
11:40  -   -   -  11 13 mph 1011.4mb 87f 86f
11:30  -   -   -  11 13 mph 1011.4mb - 86f
11:20  -   -   -  11 13 mph 1011.4mb 87f 86f
11:10  -   -   -  11 16 mph 1011.4mb 87f 86f
11:00  -   -   -  11 16 mph 1011.5mb 87f 86f
10:50 2.5ft 14s 5s 11 13 mph 1011.7mb 87f 86f
10:40  -   -   -  11 13 mph 1011.6mb 87f 86f
10:30  -   -   -  13 16 mph 1011.4mb 87f 86f
10:20  -   -   -  11 13 mph 1011.5mb 87f 86f
10:10  -   -   -  13 16 mph 1011.5mb 87f 86f
10:00  -   -   -  11 13 mph 1011.4mb 87f 86f
9:50 2.5ft 14s 4s 13 16 mph 1011.4mb - 86f
9:40  -   -   -  13 16 mph 1011.3mb 87f 86f
9:30  -   -   -  11 16 mph 1011.2mb 87f 86f
9:20  -   -   -  13 16 mph 1011.2mb 87f 86f
9:10  -   -   -  13 16 mph 1011.1mb 87f 86f
9:00  -   -   -  13 16 mph 1011mb 87f 86f
8:50 2.5ft 14s 4s 13 18 mph 1011mb 87f 86f
8:40  -   -   -  13 16 mph 1010.9mb 87f 86f
8:30  -   -   -  13 16 mph 1010.8mb 87f 86f
8:20  -   -   -  11 16 mph 1010.6mb 87f 86f
8:10  -   -   -  11 13 mph 1010.7mb 87f 86f
8:00  -   -   -  11 16 mph 1010.5mb 87f 86f
7:50 2ft 15s 4s 13 18 mph 1010.5mb 87f 86f
7:40  -   -   -  13 18 mph 1010.4mb 87f 86f
7:30  -   -   -  13 16 mph 1010.3mb 87f 86f
7:20  -   -   -  13 16 mph 1010.2mb 87f 86f
7:10  -   -   -  11 16 mph 1010.1mb 87f 86f
7:00  -   -   -  11 16 mph 1010.1mb 87f 86f
6:50 2ft 15s 4s 13 16 mph 1010mb 87f 86f
6:40 2ft  -  4s 11 16 mph 1010.1mb 87f 86f
6:20  -   -   -  11 16 mph 1010.1mb 87f 86f
6:10  -   -   -  11 13 mph 1010mb 87f 86f
6:00  -   -   -  11 13 mph 1010mb 87f 86f
5:50 1.6ft 15s 4s 11 13 mph 1010.1mb 87f 86f
5:40  -   -   -  11 16 mph 1010.1mb 87f 86f
5:30  -   -   -  11 16 mph 1010.1mb 87f 86f
5:20  -   -   -  13 16 mph 1010.2mb - 86f
5:10  -   -   -  11 16 mph 1010.2mb 87f 86f
5:00  -   -   -  13 16 mph 1010.3mb 87f 86f
4:50 2ft 15s 5s 13 16 mph 1010.4mb 87f 86f
4:40  -   -   -  13 16 mph 1010.4mb 87f 86f
4:30  -   -   -  11 13 mph 1010.4mb 87f 86f
4:20  -   -   -  11 13 mph 1010.4mb 87f 86f
4:10  -   -   -  9 13 mph 1010.4mb 87f 86f
4:00  -   -   -  9 11 mph 1010.5mb 87f 86f
3:50 2ft 11s 5s 9 11 mph 1010.5mb 88f 86f
3:40  -   -   -  9 11 mph 1010.6mb 87f 86f
3:30  -   -   -  9 11 mph 1010.6mb 87f 86f
3:20  -   -   -  9 9 mph 1010.6mb 87f 86f
3:10  -   -   -  9 11 mph 1010.6mb 88f 86f
3:00  -   -   -  9 11 mph 1010.6mb 88f 86f
2:50 2ft 11s 5s 9 11 mph 1010.7mb 87f 86f
2:40 2ft  -  5s 9 11 mph 1010.9mb 87f 86f
2:30  -   -   -  9 11 mph 1011mb 87f 86f
2:20  -   -   -  9 11 mph 1011.2mb 87f 86f
2:10  -   -   -  9 11 mph 1011.4mb 88f 86f
2:00  -   -   -  9 11 mph 1011.5mb 87f 86f
1:50 1.6ft 11s 5s 9 11 mph 1011.6mb 87f 86f
1:40 1.6ft  -  5s 9 11 mph 1011.8mb 87f 86f
1:30  -   -   -  7 11 mph 1012mb 87f 86f
1:20  -   -   -  7 9 mph 1012.1mb 87f 86f
1:10  -   -   -  7 9 mph 1012.2mb 87f 86f
1:00  -   -   -  7 9 mph 1012.2mb 87f 86f
12:50 2ft 11s 5s 7 9 mph 1012.3mb 87f 86f
12:40 2ft  -  5s 7 9 mph 1012.5mb 87f 86f
12:30  -   -   -  7 9 mph 1012.6mb 87f 86f
12:20  -   -   -  7 9 mph 1012.6mb 87f 86f
12:10  -   -   -  7 9 mph 1012.8mb 87f 86f
12:00  -   -   -  7 9 mph 1012.9mb 87f 86f
11:50 2ft 5s 5s 7 9 mph 1012.9mb 87f 86f
11:40  -   -   -  7 9 mph 1012.9mb 87f 86f
11:30  -   -   -  7 9 mph 1013mb 87f 86f
11:20  -   -   -  7 9 mph 1013.1mb 87f 86f
11:10  -   -   -  4 7 mph 1013.1mb - 86f
11:00  -   -   -  4 7 mph 1013.1mb 87f 86f
10:50 2ft  -  5s 7 9 mph 1013.6mb 87f 86f
10:40 2ft  -  5s 7 7 mph 1013.1mb 87f 86f
10:30  -   -   -  4 7 mph 1013.1mb 87f 86f
10:20  -   -   -  4 7 mph 1013.1mb 87f 86f
10:10  -   -   -  4 7 mph 1013.1mb 87f 86f
10:00  -   -   -  4 7 mph 1013.1mb 87f 86f
9:50 2ft 12s 5s 4 9 mph 1013mb 87f 86f
9:40 2ft  -  5s 4 7 mph 1013.1mb 87f 86f
9:30  -   -   -  4 7 mph 1013.1mb 87f 86f
9:20  -   -   -  7 7 mph 1013.1mb 87f 86f
9:10  -   -   -  4 7 mph 1013.1mb 87f 86f
9:00  -   -   -  4 7 mph 1012.9mb 87f 86f
8:50 2ft 5s 5s 4 7 mph 1013mb 87f 86f
8:40 2ft  -  5s 4 7 mph 1012.8mb 87f 86f
8:30  -   -   -  4 9 mph 1012.8mb 87f 86f
8:20  -   -   -  4 7 mph 1012.8mb 87f 86f
8:10  -   -   -  4 7 mph 1012.7mb 87f 86f
8:00  -   -   -  4 7 mph 1012.5mb 87f 86f
7:50 2.5ft 5s 5s 4 7 mph 1012.4mb 86f 86f
7:40  -   -   -  7 7 mph 1012.3mb 87f 86f
7:30  -   -   -  4 7 mph 1012.3mb 87f 85f
7:20  -   -   -  7 7 mph 1012.4mb 86f 85f
7:10  -   -   -  7 9 mph 1012.2mb 86f 85f
7:00  -   -   -  7 9 mph 1012.2mb 86f 85f
6:50 2.5ft 5s 5s 7 9 mph 1012.1mb 86f 85f
6:40  -   -   -  7 9 mph 1012mb 86f 85f
6:30  -   -   -  7 9 mph 1012mb 86f 85f
6:20  -   -   -  7 9 mph 1011.8mb 86f 85f
6:10  -   -   -  7 9 mph 1011.9mb 87f 85f
6:00  -   -   -  7 9 mph 1011.9mb 87f 85f
5:50 2.5ft 5s 5s 7 11 mph 1011.9mb 87f 85f
5:40 2.5ft  -  5s 7 9 mph 1011.9mb 87f 85f
5:30  -   -   -  9 11 mph 1011.9mb 87f 85f
5:20  -   -   -  9 11 mph 1011.8mb 87f 85f
5:10  -   -   -  9 11 mph 1011.7mb 87f 85f
5:00  -   -   -  9 11 mph 1011.6mb 87f 85f
4:50 2.5ft 6s 5s 9 11 mph 1011.5mb 87f 85f
4:40  -   -   -  9 11 mph 1011.5mb 87f 85f